When you browse on this site, cookies collect data to enhance your experience and personalize the content and advertising you see.
Visit our Privacy Policy to learn more. By continuing to use the site, you agree to this use of cookies and data.
  • In Romania
  • List of Countries
  • For 7 days
  • Water Temperature
  • Weather Map
  • Weather Widgets
  • user-avatar
    Login

    Hourly Weather Sacapa

    Today, 21 August, Wednesday

    Time Temperature Precipitation Wind Pressure Humidity
    00:00 +20°C° 0.3 mm 0 mps 697 mmHg 97%
    01:00 +20°C° 0.1 mm 0 mps 696 mmHg 97%
    02:00 +20°C° 0.1 mm 0 mps 696 mmHg 97%
    03:00 +20°C° 0.1 mm 0 mps 696 mmHg 97%
    04:00 +19°C° 0 mm 0 mps 696 mmHg 97%
    05:00 +19°C° 0 mm 0 mps 696 mmHg 97%
    06:00 +19°C° 0 mm 0 mps 696 mmHg 97%
    07:00 +21°C° 0 mm 0 mps 697 mmHg 92%
    08:00 +23°C° 0 mm 0 mps 697 mmHg 87%
    09:00 +26°C° 0 mm 1 mps 698 mmHg 82%
    10:00 +28°C° 0 mm 1 mps 698 mmHg 76%
    11:00 +29°C° 0 mm 1 mps 698 mmHg 70%
    12:00 +30°C° 0 mm 1 mps 698 mmHg 64%
    13:00 +31°C° 0.2 mm 1 mps 697 mmHg 64%
    14:00 +31°C° 0.2 mm 1 mps 697 mmHg 63%
    15:00 +31°C° 0.2 mm 1 mps 696 mmHg 63%
    16:00 +29°C° 1.1 mm 1 mps 696 mmHg 72%
    17:00 +27°C° 1.1 mm 1 mps 696 mmHg 81%
    18:00 +25°C° 1.1 mm 1 mps 696 mmHg 90%
    19:00 +24°C° 0.4 mm 1 mps 696 mmHg 92%
    20:00 +24°C° 0.4 mm 1 mps 697 mmHg 93%
    21:00 +21°C° 0.4 mm 0 mps 697 mmHg 95%
    22:00 +21°C° 0.4 mm 0 mps 697 mmHg 95%
    23:00 +20°C° 0.4 mm 0 mps 697 mmHg 96%

    Tomorrow, 22 August, Thursday

    Time Temperature Precipitation Wind Pressure Humidity
    00:00 +20°C° 0.4 mm 0 mps 697 mmHg 97%
    01:00 +20°C° 0.1 mm 0 mps 697 mmHg 97%
    02:00 +20°C° 0.1 mm 0 mps 696 mmHg 97%
    03:00 +19°C° 0.1 mm 0 mps 696 mmHg 97%
    04:00 +19°C° 0 mm 0 mps 696 mmHg 97%
    05:00 +19°C° 0 mm 0 mps 697 mmHg 97%
    06:00 +19°C° 0 mm 0 mps 697 mmHg 97%
    07:00 +21°C° 0 mm 0 mps 697 mmHg 92%
    08:00 +23°C° 0 mm 0 mps 698 mmHg 87%
    09:00 +25°C° 0 mm 0 mps 698 mmHg 81%
    10:00 +26°C° 0 mm 0 mps 698 mmHg 76%
    11:00 +29°C° 0 mm 1 mps 698 mmHg 71%
    12:00 +30°C° 0 mm 1 mps 698 mmHg 66%
    13:00 +31°C° 0.1 mm 1 mps 697 mmHg 64%
    14:00 +31°C° 0.1 mm 1 mps 697 mmHg 63%
    15:00 +31°C° 0.1 mm 1 mps 696 mmHg 61%
    16:00 +29°C° 0.4 mm 1 mps 696 mmHg 70%
    17:00 +27°C° 0.4 mm 1 mps 696 mmHg 78%
    18:00 +26°C° 0.4 mm 1 mps 696 mmHg 87%
    19:00 +25°C° 0.3 mm 1 mps 696 mmHg 89%
    20:00 +24°C° 0.3 mm 1 mps 697 mmHg 91%
    21:00 +21°C° 0.3 mm 0 mps 697 mmHg 93%
    22:00 +20°C° 0 mm 0 mps 697 mmHg 94%
    23:00 +20°C° 0 mm 0 mps 697 mmHg 95%

    Day after tomorrow, 23 August, Friday

    Time Temperature Precipitation Wind Pressure Humidity
    00:00 +20°C° 0 mm 0 mps 697 mmHg 97%
    01:00 +20°C° 0 mm 0 mps 696 mmHg 97%
    02:00 +20°C° 0 mm 0 mps 696 mmHg 97%
    03:00 +19°C° 0 mm 0 mps 696 mmHg 97%
    04:00 +19°C° 0 mm 0 mps 696 mmHg 97%
    05:00 +19°C° 0 mm 0 mps 696 mmHg 97%
    06:00 +19°C° 0 mm 0 mps 696 mmHg 97%
    07:00 +21°C° 0 mm 0 mps 697 mmHg 92%
    08:00 +23°C° 0 mm 0 mps 698 mmHg 86%
    09:00 +25°C° 0 mm 0 mps 698 mmHg 80%
    10:00 +29°C° 0 mm 1 mps 698 mmHg 73%
    11:00 +30°C° 0 mm 1 mps 698 mmHg 65%
    12:00 +32°C° 0 mm 1 mps 698 mmHg 57%
    13:00 +32°C° 0.2 mm 1 mps 698 mmHg 57%
    14:00 +32°C° 0.2 mm 1 mps 697 mmHg 57%
    15:00 +32°C° 0.2 mm 1 mps 696 mmHg 56%
    16:00 +30°C° 0.2 mm 1 mps 696 mmHg 65%
    17:00 +28°C° 0.2 mm 1 mps 696 mmHg 73%
    18:00 +26°C° 0.2 mm 1 mps 696 mmHg 81%
    19:00 +25°C° 0 mm 1 mps 696 mmHg 85%
    20:00 +24°C° 0 mm 1 mps 697 mmHg 89%
    21:00 +23°C° 0 mm 1 mps 697 mmHg 93%
    22:00 +22°C° 0 mm 1 mps 697 mmHg 94%
    23:00 +22°C° 0 mm 1 mps 697 mmHg 96%

    24 August, Saturday

    Time Temperature Precipitation Wind Pressure Humidity
    00:00 +20°C° 0 mm 0 mps 697 mmHg 97%
    01:00 +20°C° 0 mm 0 mps 697 mmHg 96%
    02:00 +20°C° 0 mm 0 mps 696 mmHg 95%
    03:00 +20°C° 0 mm 0 mps 696 mmHg 94%
    04:00 +20°C° 0 mm 0 mps 696 mmHg 94%
    05:00 +20°C° 0 mm 0 mps 696 mmHg 94%
    06:00 +20°C° 0 mm 0 mps 697 mmHg 94%
    07:00 +22°C° 0 mm 0 mps 697 mmHg 86%
    08:00 +24°C° 0 mm 0 mps 698 mmHg 78%
    09:00 +26°C° 0 mm 0 mps 699 mmHg 70%
    10:00 +29°C° 0 mm 1 mps 698 mmHg 65%
    11:00 +30°C° 0 mm 1 mps 698 mmHg 60%
    12:00 +32°C° 0 mm 1 mps 698 mmHg 55%
    13:00 +32°C° 0 mm 2 mps 698 mmHg 55%
    14:00 +32°C° 0 mm 2 mps 697 mmHg 55%
    15:00 +32°C° 0 mm 2 mps 696 mmHg 55%
    16:00 +30°C° 0 mm 2 mps 696 mmHg 64%
    17:00 +28°C° 0 mm 2 mps 696 mmHg 73%
    18:00 +26°C° 0 mm 1 mps 696 mmHg 82%
    19:00 +25°C° 0 mm 1 mps 696 mmHg 86%
    20:00 +24°C° 0 mm 1 mps 697 mmHg 91%
    21:00 +23°C° 0 mm 1 mps 697 mmHg 95%
    22:00 +22°C° 0 mm 1 mps 697 mmHg 96%
    23:00 +22°C° 0 mm 1 mps 697 mmHg 96%

    25 August, Sunday

    Time Temperature Precipitation Wind Pressure Humidity
    00:00 +20°C° 0 mm 0 mps 697 mmHg 97%
    01:00 +20°C° 0 mm 0 mps 696 mmHg 96%
    02:00 +19°C° 0 mm 0 mps 696 mmHg 96%
    03:00 +19°C° 0 mm 0 mps 695 mmHg 95%
    04:00 +19°C° 0 mm 0 mps 695 mmHg 95%
    05:00 +19°C° 0 mm 0 mps 696 mmHg 95%
    06:00 +19°C° 0 mm 0 mps 696 mmHg 95%
    07:00 +21°C° 0 mm 0 mps 696 mmHg 88%
    08:00 +23°C° 0 mm 0 mps 697 mmHg 80%
    09:00 +25°C° 0 mm 0 mps 698 mmHg 73%
    10:00 +29°C° 0 mm 1 mps 697 mmHg 67%
    11:00 +30°C° 0 mm 1 mps 697 mmHg 61%
    12:00 +32°C° 0 mm 1 mps 697 mmHg 56%
    13:00 +32°C° 0 mm 1 mps 696 mmHg 55%
    14:00 +32°C° 0 mm 1 mps 696 mmHg 54%
    15:00 +32°C° 0 mm 2 mps 695 mmHg 53%
    16:00 +30°C° 0.1 mm 1 mps 695 mmHg 63%
    17:00 +28°C° 0.1 mm 1 mps 695 mmHg 72%
    18:00 +26°C° 0.1 mm 1 mps 695 mmHg 82%
    19:00 +25°C° 0.2 mm 1 mps 695 mmHg 87%
    20:00 +24°C° 0.2 mm 1 mps 696 mmHg 91%
    21:00 +23°C° 0.2 mm 1 mps 696 mmHg 95%
    22:00 +20°C° 0 mm 0 mps 696 mmHg 96%
    23:00 +20°C° 0 mm 0 mps 696 mmHg 97%

    26 August, Monday

    Time Temperature Precipitation Wind Pressure Humidity
    00:00 +20°C° 0 mm 0 mps 695 mmHg 97%
    01:00 +20°C° 0 mm 0 mps 695 mmHg 97%
    02:00 +20°C° 0 mm 0 mps 695 mmHg 97%
    03:00 +20°C° 0 mm 0 mps 694 mmHg 96%
    04:00 +20°C° 0 mm 0 mps 695 mmHg 96%
    05:00 +20°C° 0 mm 0 mps 695 mmHg 95%
    06:00 +19°C° 0 mm 0 mps 695 mmHg 95%
    07:00 +21°C° 0 mm 0 mps 696 mmHg 88%
    08:00 +23°C° 0 mm 0 mps 696 mmHg 81%
    09:00 +25°C° 0 mm 0 mps 697 mmHg 75%
    10:00 +27°C° 0 mm 0 mps 696 mmHg 69%
    11:00 +30°C° 0 mm 1 mps 696 mmHg 62%
    12:00 +32°C° 0 mm 1 mps 696 mmHg 56%
    13:00 +32°C° 0.6 mm 1 mps 696 mmHg 59%
    14:00 +31°C° 0.6 mm 1 mps 695 mmHg 61%
    15:00 +29°C° 0.6 mm 0 mps 694 mmHg 63%
    16:00 +27°C° 2 mm 0 mps 694 mmHg 72%
    17:00 +25°C° 2 mm 0 mps 694 mmHg 82%
    18:00 +22°C° 2 mm 0 mps 694 mmHg 91%
    19:00 +24°C° 2.5 mm 1 mps 695 mmHg 93%
    20:00 +23°C° 2.5 mm 1 mps 695 mmHg 95%
    21:00 +23°C° 2.5 mm 1 mps 696 mmHg 97%
    22:00 +22°C° 2.8 mm 1 mps 696 mmHg 97%
    23:00 +22°C° 2.8 mm 1 mps 696 mmHg 97%
    Show more